When you browse on this site, cookies collect data to enhance your experience and personalize the content and advertising you see.
Visit our Privacy Policy to learn more. By continuing to use the site, you agree to this use of cookies and data.
  • In Germany
  • List of Countries
  • For 7 days
  • Water Temperature
  • Satellite Maps
  • Weather Map
  • Weather Widgets
  • user-avatar
    Login

    Hourly Weather Mykhailyuky

    Today, 18 November, Sunday

    Time Temperature Precipitation Wind Pressure Humidity
    00:00 -4°C° 0 mm 2 mps 760 mmHg 49%
    01:00 -4°C° 0 mm 2 mps 759 mmHg 49%
    02:00 -2°C° 0 mm 1 mps 759 mmHg 49%
    03:00 -2°C° 0 mm 1 mps 758 mmHg 47%
    04:00 -2°C° 0 mm 1 mps 758 mmHg 47%
    05:00 -2°C° 0 mm 1 mps 758 mmHg 47%
    06:00 -3°C° 0 mm 1 mps 758 mmHg 46%
    07:00 -3°C° 0 mm 0 mps 757 mmHg 45%
    08:00 -3°C° 0 mm 0 mps 757 mmHg 43%
    09:00 -2°C° 0 mm 0 mps 757 mmHg 42%
    10:00 -1°C° 0 mm 0 mps 757 mmHg 40%
    11:00 0°C° 0 mm 0 mps 756 mmHg 38%
    12:00 +1°C° 0 mm 0 mps 756 mmHg 35%
    13:00 +2°C° 0 mm 0 mps 756 mmHg 36%
    14:00 +2°C° 0 mm 0 mps 756 mmHg 37%
    15:00 +2°C° 0 mm 0 mps 756 mmHg 40%
    16:00 +1°C° 0 mm 0 mps 756 mmHg 43%
    17:00 0°C° 0 mm 0 mps 756 mmHg 46%
    18:00 0°C° 0 mm 1 mps 756 mmHg 49%
    19:00 0°C° 0 mm 1 mps 756 mmHg 49%
    20:00 0°C° 0 mm 1 mps 756 mmHg 50%
    21:00 -1°C° 0 mm 1 mps 756 mmHg 51%
    22:00 -1°C° 0 mm 1 mps 756 mmHg 51%
    23:00 -1°C° 0 mm 1 mps 756 mmHg 52%

    Tomorrow, 19 November, Monday

    Time Temperature Precipitation Wind Pressure Humidity
    00:00 -1°C° 0 mm 1 mps 756 mmHg 52%
    01:00 -1°C° 0 mm 1 mps 756 mmHg 53%
    02:00 -1°C° 0 mm 1 mps 756 mmHg 55%
    03:00 -2°C° 0 mm 1 mps 756 mmHg 56%
    04:00 -2°C° 0 mm 1 mps 756 mmHg 57%
    05:00 -2°C° 0 mm 1 mps 756 mmHg 58%
    06:00 -2°C° 0 mm 1 mps 756 mmHg 59%
    07:00 -2°C° 0 mm 1 mps 756 mmHg 57%
    08:00 -3°C° 0 mm 2 mps 757 mmHg 56%
    09:00 -3°C° 0 mm 2 mps 757 mmHg 55%
    10:00 -2°C° 0 mm 2 mps 757 mmHg 53%
    11:00 0°C° 0 mm 3 mps 757 mmHg 50%
    12:00 +1°C° 0 mm 3 mps 757 mmHg 47%
    13:00 +1°C° 0 mm 3 mps 756 mmHg 49%
    14:00 +1°C° 0 mm 3 mps 756 mmHg 51%
    15:00 +1°C° 0 mm 3 mps 756 mmHg 53%
    16:00 0°C° 0 mm 3 mps 756 mmHg 56%
    17:00 -1°C° 0 mm 3 mps 756 mmHg 59%
    18:00 -2°C° 0 mm 3 mps 756 mmHg 62%
    19:00 -1°C° 0 mm 3 mps 756 mmHg 61%
    20:00 -1°C° 0 mm 3 mps 755 mmHg 59%
    21:00 -1°C° 0 mm 3 mps 755 mmHg 57%
    22:00 -1°C° 0 mm 3 mps 755 mmHg 56%
    23:00 -1°C° 0 mm 3 mps 755 mmHg 55%

    Day after tomorrow, 20 November, Tuesday

    Time Temperature Precipitation Wind Pressure Humidity
    00:00 -1°C° 0 mm 3 mps 755 mmHg 55%
    01:00 -3°C° 0 mm 4 mps 754 mmHg 56%
    02:00 -3°C° 0 mm 4 mps 754 mmHg 57%
    03:00 -3°C° 0 mm 4 mps 754 mmHg 57%
    04:00 -3°C° 0.1 mm 4 mps 754 mmHg 61%
    05:00 -4°C° 0.1 mm 5 mps 753 mmHg 64%
    06:00 -4°C° 0.1 mm 5 mps 753 mmHg 67%
    07:00 -4°C° 0.4 mm 5 mps 753 mmHg 71%
    08:00 -4°C° 0.4 mm 5 mps 753 mmHg 75%
    09:00 -4°C° 0.4 mm 5 mps 753 mmHg 79%
    10:00 -4°C° 0.6 mm 5 mps 752 mmHg 82%
    11:00 -2°C° 0.6 mm 5 mps 752 mmHg 86%
    12:00 -2°C° 0.6 mm 5 mps 752 mmHg 89%
    13:00 -3°C° 0.6 mm 6 mps 752 mmHg 89%
    14:00 -3°C° 0.6 mm 6 mps 751 mmHg 90%
    15:00 -3°C° 0.6 mm 6 mps 751 mmHg 91%
    16:00 -3°C° 0.2 mm 6 mps 751 mmHg 90%
    17:00 -4°C° 0.2 mm 5 mps 752 mmHg 88%
    18:00 -4°C° 0.2 mm 5 mps 752 mmHg 87%
    19:00 -4°C° 0 mm 5 mps 752 mmHg 86%
    20:00 -3°C° 0 mm 4 mps 752 mmHg 85%
    21:00 -3°C° 0 mm 4 mps 753 mmHg 84%
    22:00 -4°C° 0 mm 4 mps 753 mmHg 84%
    23:00 -4°C° 0 mm 3 mps 753 mmHg 84%

    21 November, Wednesday

    Time Temperature Precipitation Wind Pressure Humidity
    00:00 -5°C° 0 mm 3 mps 753 mmHg 84%
    01:00 -5°C° 0 mm 3 mps 754 mmHg 85%
    02:00 -6°C° 0 mm 3 mps 754 mmHg 85%
    03:00 -5°C° 0 mm 2 mps 754 mmHg 85%
    04:00 -6°C° 0 mm 3 mps 754 mmHg 85%
    05:00 -7°C° 0 mm 3 mps 754 mmHg 86%
    06:00 -7°C° 0 mm 3 mps 754 mmHg 86%
    07:00 -7°C° 0 mm 3 mps 754 mmHg 87%
    08:00 -6°C° 0 mm 3 mps 754 mmHg 88%
    09:00 -6°C° 0 mm 3 mps 754 mmHg 89%
    10:00 -5°C° 0 mm 3 mps 754 mmHg 87%
    11:00 -4°C° 0 mm 3 mps 754 mmHg 85%
    12:00 -2°C° 0 mm 2 mps 754 mmHg 84%
    13:00 -2°C° 0 mm 2 mps 754 mmHg 84%
    14:00 -1°C° 0 mm 2 mps 753 mmHg 84%
    15:00 -1°C° 0 mm 2 mps 753 mmHg 84%
    16:00 -2°C° 0 mm 2 mps 753 mmHg 85%
    17:00 -3°C° 0 mm 2 mps 753 mmHg 86%
    18:00 -4°C° 0 mm 2 mps 753 mmHg 87%
    19:00 -4°C° 0 mm 2 mps 753 mmHg 87%
    20:00 -4°C° 0 mm 2 mps 753 mmHg 86%
    21:00 -5°C° 0 mm 2 mps 752 mmHg 86%
    22:00 -5°C° 0 mm 2 mps 752 mmHg 86%
    23:00 -5°C° 0 mm 2 mps 752 mmHg 86%

    22 November, Thursday

    Time Temperature Precipitation Wind Pressure Humidity
    00:00 -5°C° 0 mm 2 mps 752 mmHg 86%
    01:00 -6°C° 0 mm 2 mps 752 mmHg 87%
    02:00 -6°C° 0 mm 2 mps 752 mmHg 88%
    03:00 -6°C° 0 mm 2 mps 752 mmHg 88%
    04:00 -6°C° 0 mm 2 mps 752 mmHg 89%
    05:00 -6°C° 0 mm 2 mps 752 mmHg 90%
    06:00 -6°C° 0 mm 2 mps 752 mmHg 91%
    07:00 -6°C° 0 mm 2 mps 753 mmHg 91%
    08:00 -6°C° 0 mm 2 mps 753 mmHg 91%
    09:00 -5°C° 0 mm 2 mps 753 mmHg 91%
    10:00 -5°C° 0 mm 3 mps 753 mmHg 86%
    11:00 -4°C° 0 mm 3 mps 753 mmHg 81%
    12:00 -2°C° 0 mm 3 mps 753 mmHg 77%
    13:00 -2°C° 0 mm 3 mps 753 mmHg 76%
    14:00 -2°C° 0 mm 3 mps 753 mmHg 75%
    15:00 -2°C° 0 mm 3 mps 752 mmHg 75%
    16:00 -4°C° 0 mm 3 mps 752 mmHg 77%
    17:00 -5°C° 0 mm 3 mps 752 mmHg 80%
    18:00 -6°C° 0 mm 3 mps 752 mmHg 82%
    19:00 -6°C° 0 mm 3 mps 752 mmHg 82%
    20:00 -6°C° 0 mm 3 mps 752 mmHg 82%
    21:00 -6°C° 0 mm 3 mps 752 mmHg 82%
    22:00 -6°C° 0 mm 3 mps 752 mmHg 82%
    23:00 -7°C° 0 mm 4 mps 752 mmHg 83%

    23 November, Friday

    Time Temperature Precipitation Wind Pressure Humidity
    00:00 -7°C° 0 mm 4 mps 752 mmHg 83%
    01:00 -7°C° 0 mm 4 mps 752 mmHg 85%
    02:00 -7°C° 0 mm 4 mps 753 mmHg 86%
    03:00 -8°C° 0 mm 4 mps 753 mmHg 88%
    04:00 -7°C° 0 mm 3 mps 753 mmHg 89%
    05:00 -7°C° 0 mm 3 mps 754 mmHg 89%
    06:00 -7°C° 0 mm 3 mps 754 mmHg 90%
    07:00 -6°C° 0 mm 3 mps 755 mmHg 90%
    08:00 -6°C° 0 mm 3 mps 756 mmHg 90%
    09:00 -6°C° 0 mm 3 mps 757 mmHg 90%
    10:00 -5°C° 0 mm 3 mps 757 mmHg 85%
    11:00 -2°C° 0 mm 3 mps 758 mmHg 79%
    12:00 -1°C° 0 mm 3 mps 758 mmHg 74%
    13:00 -1°C° 0 mm 3 mps 758 mmHg 73%
    14:00 -1°C° 0 mm 2 mps 759 mmHg 72%
    15:00 -1°C° 0 mm 2 mps 759 mmHg 71%
    16:00 0°C° 0 mm 1 mps 759 mmHg 71%
    17:00 -2°C° 0 mm 1 mps 759 mmHg 72%
    18:00 -3°C° 0 mm 1 mps 760 mmHg 72%
    19:00 -3°C° 0 mm 1 mps 760 mmHg 72%
    20:00 -4°C° 0 mm 0 mps 760 mmHg 71%
    21:00 -4°C° 0 mm 0 mps 760 mmHg 71%
    22:00 -5°C° 0 mm 0 mps 760 mmHg 71%
    23:00 -4°C° 0 mm 1 mps 760 mmHg 72%
    Show more